Year,Month,Day,Hour,Minute,Value (Times are PST for temperature in C)
2017,06,26,00,00,19.70
2017,06,26,00,01,19.70
2017,06,26,00,02,19.70
2017,06,26,00,03,19.70
2017,06,26,00,04,19.70
2017,06,26,00,05,19.70
2017,06,26,00,06,19.70
2017,06,26,00,07,19.70
2017,06,26,00,08,19.70
2017,06,26,00,09,19.70
2017,06,26,00,10,19.70
2017,06,26,00,11,19.80
2017,06,26,00,12,19.80
2017,06,26,00,13,19.80
2017,06,26,00,14,19.80
2017,06,26,00,15,19.80
2017,06,26,00,16,19.80
2017,06,26,00,17,19.80
2017,06,26,00,18,19.80
2017,06,26,00,19,19.80
2017,06,26,00,20,19.80
2017,06,26,00,21,19.80
2017,06,26,00,22,19.80
2017,06,26,00,23,19.90
2017,06,26,00,24,19.90
2017,06,26,00,25,19.90
2017,06,26,00,26,19.90
2017,06,26,00,27,19.90
2017,06,26,00,28,19.90
2017,06,26,00,29,19.90
2017,06,26,00,30,20.00
2017,06,26,00,31,20.00
2017,06,26,00,32,19.90
2017,06,26,00,33,19.90
2017,06,26,00,34,19.90
2017,06,26,00,35,19.90
2017,06,26,00,36,19.90
2017,06,26,00,37,19.80
2017,06,26,00,38,19.80
2017,06,26,00,39,19.80
2017,06,26,00,40,19.70
2017,06,26,00,41,19.70
2017,06,26,00,42,19.70
2017,06,26,00,43,19.70
2017,06,26,00,44,19.60
2017,06,26,00,45,19.60
2017,06,26,00,46,19.60
2017,06,26,00,47,19.60
2017,06,26,00,48,19.60
2017,06,26,00,49,19.60
2017,06,26,00,50,19.60
2017,06,26,00,51,19.60
2017,06,26,00,52,19.60
2017,06,26,00,53,19.60
2017,06,26,00,54,19.60
2017,06,26,00,55,19.60
2017,06,26,00,56,19.60
2017,06,26,00,57,19.50
2017,06,26,00,58,19.50
2017,06,26,00,59,19.50
2017,06,26,01,00,19.50
2017,06,26,01,01,19.50
2017,06,26,01,02,19.40
2017,06,26,01,03,19.40
2017,06,26,01,04,19.40
2017,06,26,01,05,19.40
2017,06,26,01,06,19.40
2017,06,26,01,07,19.30
2017,06,26,01,08,19.30
2017,06,26,01,09,19.30
2017,06,26,01,10,19.30
2017,06,26,01,11,19.30
2017,06,26,01,12,19.40
2017,06,26,01,13,19.40
2017,06,26,01,14,19.40
2017,06,26,01,15,19.50
2017,06,26,01,16,19.50
2017,06,26,01,17,19.60
2017,06,26,01,18,19.70
2017,06,26,01,19,19.80
2017,06,26,01,20,19.80
2017,06,26,01,21,19.90
2017,06,26,01,22,19.90
2017,06,26,01,23,19.90
2017,06,26,01,24,19.90
2017,06,26,01,25,19.90
2017,06,26,01,26,19.90
2017,06,26,01,27,20.00
2017,06,26,01,28,20.00
2017,06,26,01,29,20.00
2017,06,26,01,30,20.00
2017,06,26,01,31,20.00
2017,06,26,01,32,20.00
2017,06,26,01,33,20.00
2017,06,26,01,34,20.00
2017,06,26,01,35,19.90
2017,06,26,01,36,19.90
2017,06,26,01,37,19.90
2017,06,26,01,38,20.00
2017,06,26,01,39,20.00
2017,06,26,01,40,20.00
2017,06,26,01,41,19.90
2017,06,26,01,42,19.90
2017,06,26,01,43,19.90
2017,06,26,01,44,19.90
2017,06,26,01,45,19.90
2017,06,26,01,46,19.90
2017,06,26,01,47,20.00
2017,06,26,01,48,20.00
2017,06,26,01,49,20.00
2017,06,26,01,50,20.00
2017,06,26,01,51,20.10
2017,06,26,01,52,20.10
2017,06,26,01,53,20.10
2017,06,26,01,54,20.10
2017,06,26,01,55,20.10
2017,06,26,01,56,20.10
2017,06,26,01,57,20.10
2017,06,26,01,58,20.20
2017,06,26,01,59,20.20
2017,06,26,02,00,20.20
2017,06,26,02,01,20.20
2017,06,26,02,02,20.20
2017,06,26,02,03,20.20
2017,06,26,02,04,20.20
2017,06,26,02,05,20.20
2017,06,26,02,06,20.20
2017,06,26,02,07,20.10
2017,06,26,02,08,20.10
2017,06,26,02,09,20.10
2017,06,26,02,10,20.10
2017,06,26,02,11,20.00
2017,06,26,02,12,20.00
2017,06,26,02,13,20.00
2017,06,26,02,14,19.90
2017,06,26,02,15,19.90
2017,06,26,02,16,20.00
2017,06,26,02,17,20.00
2017,06,26,02,18,20.00
2017,06,26,02,19,20.00
2017,06,26,02,20,20.00
2017,06,26,02,21,20.00
2017,06,26,02,22,19.90
2017,06,26,02,23,19.90
2017,06,26,02,24,19.90
2017,06,26,02,25,19.90
2017,06,26,02,26,19.90
2017,06,26,02,27,19.90
2017,06,26,02,28,19.90
2017,06,26,02,29,19.90
2017,06,26,02,30,19.80
2017,06,26,02,31,19.80
2017,06,26,02,32,19.80
2017,06,26,02,33,19.70
2017,06,26,02,34,19.70
2017,06,26,02,35,19.70
2017,06,26,02,36,19.70
2017,06,26,02,37,19.70
2017,06,26,02,38,19.70
2017,06,26,02,39,19.70
2017,06,26,02,40,19.70
2017,06,26,02,41,19.60
2017,06,26,02,42,19.60
2017,06,26,02,43,19.60
2017,06,26,02,44,19.60
2017,06,26,02,45,19.60
2017,06,26,02,46,19.50
2017,06,26,02,47,19.50
2017,06,26,02,48,19.40
2017,06,26,02,49,19.40
2017,06,26,02,50,19.40
2017,06,26,02,51,19.40
2017,06,26,02,52,19.30
2017,06,26,02,53,19.30
2017,06,26,02,54,19.30
2017,06,26,02,55,19.30
2017,06,26,02,56,19.30
2017,06,26,02,57,19.30
2017,06,26,02,58,19.20
2017,06,26,02,59,19.20
2017,06,26,03,00,19.10
2017,06,26,03,01,19.10
2017,06,26,03,02,19.10
2017,06,26,03,03,19.00
2017,06,26,03,04,19.00
2017,06,26,03,05,18.90
2017,06,26,03,06,18.90
2017,06,26,03,07,18.90
2017,06,26,03,08,18.90
2017,06,26,03,09,18.90
2017,06,26,03,10,18.80
2017,06,26,03,11,18.80
2017,06,26,03,12,18.80
2017,06,26,03,13,18.80
2017,06,26,03,14,18.70
2017,06,26,03,15,18.70
2017,06,26,03,16,18.70
2017,06,26,03,17,18.70
2017,06,26,03,18,18.70
2017,06,26,03,19,18.70
2017,06,26,03,20,18.70
2017,06,26,03,21,18.70
2017,06,26,03,22,18.70
2017,06,26,03,23,18.70
2017,06,26,03,24,18.70
2017,06,26,03,25,18.70
2017,06,26,03,26,18.70
2017,06,26,03,27,18.70
2017,06,26,03,28,18.70
2017,06,26,03,29,18.70
2017,06,26,03,30,18.70
2017,06,26,03,31,18.70
2017,06,26,03,32,18.70
2017,06,26,03,33,18.70
2017,06,26,03,34,18.60
2017,06,26,03,35,18.60
2017,06,26,03,36,18.60
2017,06,26,03,37,18.50
2017,06,26,03,38,18.50
2017,06,26,03,39,18.50
2017,06,26,03,40,18.40
2017,06,26,03,41,18.40
2017,06,26,03,42,18.40
2017,06,26,03,43,18.40
2017,06,26,03,44,18.40
2017,06,26,03,45,18.40
2017,06,26,03,46,18.30
2017,06,26,03,47,18.30
2017,06,26,03,48,18.30
2017,06,26,03,49,18.30
2017,06,26,03,50,18.30
2017,06,26,03,51,18.40
2017,06,26,03,52,18.40
2017,06,26,03,53,18.40
2017,06,26,03,54,18.40
2017,06,26,03,55,18.40
2017,06,26,03,56,18.40
2017,06,26,03,57,18.30
2017,06,26,03,58,18.30
2017,06,26,03,59,18.30
2017,06,26,04,00,18.30
2017,06,26,04,01,18.30
2017,06,26,04,02,18.20
2017,06,26,04,03,18.20
2017,06,26,04,04,18.20
2017,06,26,04,05,18.10
2017,06,26,04,06,18.10
2017,06,26,04,07,18.10
2017,06,26,04,08,18.10
2017,06,26,04,09,18.10
2017,06,26,04,10,18.00
2017,06,26,04,11,18.00
2017,06,26,04,12,18.00
2017,06,26,04,13,18.00
2017,06,26,04,14,17.90
2017,06,26,04,15,17.90
2017,06,26,04,16,17.80
2017,06,26,04,17,17.80
2017,06,26,04,18,17.80
2017,06,26,04,19,17.80
2017,06,26,04,20,17.70
2017,06,26,04,21,17.70
2017,06,26,04,22,17.70
2017,06,26,04,23,17.70
2017,06,26,04,24,17.70
2017,06,26,04,25,17.70
2017,06,26,04,26,17.60
2017,06,26,04,27,17.60
2017,06,26,04,28,17.60
2017,06,26,04,29,17.60
2017,06,26,04,30,17.60
2017,06,26,04,31,17.60
2017,06,26,04,32,17.60
2017,06,26,04,33,17.60
2017,06,26,04,34,17.60
2017,06,26,04,35,17.60
2017,06,26,04,36,17.50
2017,06,26,04,37,17.50
2017,06,26,04,38,17.50
2017,06,26,04,39,17.50
2017,06,26,04,40,17.50
2017,06,26,04,41,17.50
2017,06,26,04,42,17.50
2017,06,26,04,43,17.50
2017,06,26,04,44,17.40
2017,06,26,04,45,17.40
2017,06,26,04,46,17.40
2017,06,26,04,47,17.40
2017,06,26,04,48,17.40
2017,06,26,04,49,17.40
2017,06,26,04,50,17.40
2017,06,26,04,51,17.30
2017,06,26,04,52,17.30
2017,06,26,04,53,17.30
2017,06,26,04,54,17.30
2017,06,26,04,55,17.30
2017,06,26,04,56,17.30
2017,06,26,04,57,17.30
2017,06,26,04,58,17.30
2017,06,26,04,59,17.30
2017,06,26,05,00,17.30
2017,06,26,05,01,17.30
2017,06,26,05,02,17.30
2017,06,26,05,03,17.30
2017,06,26,05,04,17.20
2017,06,26,05,05,17.20
2017,06,26,05,06,17.20
2017,06,26,05,07,17.20
2017,06,26,05,08,17.20
2017,06,26,05,09,17.20
2017,06,26,05,10,17.20
2017,06,26,05,11,17.20
2017,06,26,05,12,17.20
2017,06,26,05,13,17.20
2017,06,26,05,14,17.20
2017,06,26,05,15,17.20
2017,06,26,05,16,17.20
2017,06,26,05,17,17.20
2017,06,26,05,18,17.20
2017,06,26,05,19,17.20
2017,06,26,05,20,17.10
2017,06,26,05,21,17.10
2017,06,26,05,22,17.10
2017,06,26,05,23,17.10
2017,06,26,05,24,17.10
2017,06,26,05,25,17.10
2017,06,26,05,26,17.10
2017,06,26,05,27,17.10
2017,06,26,05,28,17.10
2017,06,26,05,29,17.00
2017,06,26,05,30,17.00
2017,06,26,05,31,16.90
2017,06,26,05,32,16.90
2017,06,26,05,33,16.90
2017,06,26,05,34,16.90
2017,06,26,05,35,16.90
2017,06,26,05,36,16.80
2017,06,26,05,37,16.80
2017,06,26,05,38,16.80
2017,06,26,05,39,16.80
2017,06,26,05,40,16.80
2017,06,26,05,41,16.80
2017,06,26,05,42,16.80
2017,06,26,05,43,16.70
2017,06,26,05,44,16.70
2017,06,26,05,45,16.70
2017,06,26,05,46,16.70
2017,06,26,05,47,16.70
2017,06,26,05,48,16.70
2017,06,26,05,49,16.70
2017,06,26,05,50,16.70
2017,06,26,05,51,16.70
2017,06,26,05,52,16.70
2017,06,26,05,53,16.70
2017,06,26,05,54,16.70
2017,06,26,05,55,16.70
2017,06,26,05,56,16.70
2017,06,26,05,57,16.70
2017,06,26,05,58,16.70
2017,06,26,05,59,16.70
2017,06,26,06,00,16.70
2017,06,26,06,01,16.70
2017,06,26,06,02,16.70
2017,06,26,06,03,16.60
2017,06,26,06,04,16.60
2017,06,26,06,05,16.60
2017,06,26,06,06,16.60
2017,06,26,06,07,16.60
2017,06,26,06,08,16.60
2017,06,26,06,09,16.60
2017,06,26,06,10,16.60
2017,06,26,06,11,16.60
2017,06,26,06,12,16.60
2017,06,26,06,13,16.60
2017,06,26,06,14,16.60
2017,06,26,06,15,16.60
2017,06,26,06,16,16.60
2017,06,26,06,17,16.60
2017,06,26,06,18,16.70
2017,06,26,06,19,16.70
2017,06,26,06,20,16.70
2017,06,26,06,21,16.70
2017,06,26,06,22,16.70
2017,06,26,06,23,16.60
2017,06,26,06,24,16.60
2017,06,26,06,25,16.60
2017,06,26,06,26,16.60
2017,06,26,06,27,16.60
2017,06,26,06,28,16.60
2017,06,26,06,29,16.60
2017,06,26,06,30,16.60
2017,06,26,06,31,16.50
2017,06,26,06,32,16.50
2017,06,26,06,33,16.50
2017,06,26,06,34,16.50
2017,06,26,06,35,16.50
2017,06,26,06,36,16.50
2017,06,26,06,37,16.50
2017,06,26,06,38,16.50
2017,06,26,06,39,16.50
2017,06,26,06,40,16.50
2017,06,26,06,41,16.50
2017,06,26,06,42,16.50
2017,06,26,06,43,16.50
2017,06,26,06,44,16.50
2017,06,26,06,45,16.50
2017,06,26,06,46,16.50
2017,06,26,06,47,16.50
2017,06,26,06,48,16.50
2017,06,26,06,49,16.50
2017,06,26,06,50,16.60
2017,06,26,06,51,16.60
2017,06,26,06,52,16.50
2017,06,26,06,53,16.50
2017,06,26,06,54,16.50
2017,06,26,06,55,16.50
2017,06,26,06,56,16.60
2017,06,26,06,57,16.60
2017,06,26,06,58,16.60
2017,06,26,06,59,16.60
2017,06,26,07,00,16.60
2017,06,26,07,01,16.60
2017,06,26,07,02,16.60
2017,06,26,07,03,16.60
2017,06,26,07,04,16.70
2017,06,26,07,05,16.70
2017,06,26,07,06,16.70
2017,06,26,07,07,16.70
2017,06,26,07,08,16.70
2017,06,26,07,09,16.70
2017,06,26,07,10,16.70
2017,06,26,07,11,16.70
2017,06,26,07,12,16.70
2017,06,26,07,13,16.70
2017,06,26,07,14,16.70
2017,06,26,07,15,16.70
2017,06,26,07,16,16.70
2017,06,26,07,17,16.70
2017,06,26,07,18,16.70
2017,06,26,07,19,16.70
2017,06,26,07,20,16.70
2017,06,26,07,21,16.70
2017,06,26,07,22,16.70
2017,06,26,07,23,16.70
2017,06,26,07,24,16.70
2017,06,26,07,25,16.70
2017,06,26,07,26,16.70
2017,06,26,07,27,16.70
2017,06,26,07,28,16.70
2017,06,26,07,29,16.70
2017,06,26,07,30,16.70
2017,06,26,07,31,16.80
2017,06,26,07,32,16.80
2017,06,26,07,33,16.80
2017,06,26,07,34,16.80
2017,06,26,07,35,16.80
2017,06,26,07,36,16.80
2017,06,26,07,37,16.80
2017,06,26,07,38,16.90
2017,06,26,07,39,16.90
2017,06,26,07,40,16.90
2017,06,26,07,41,16.90
2017,06,26,07,42,17.00
2017,06,26,07,43,17.10
2017,06,26,07,44,17.10
2017,06,26,07,45,17.10
2017,06,26,07,46,17.10
2017,06,26,07,47,17.10
2017,06,26,07,48,17.10
2017,06,26,07,49,17.20
2017,06,26,07,50,17.20
2017,06,26,07,51,17.20
2017,06,26,07,52,17.30
2017,06,26,07,53,17.30
2017,06,26,07,54,17.30
2017,06,26,07,55,17.30
2017,06,26,07,56,17.40
2017,06,26,07,57,17.40
2017,06,26,07,58,17.40
2017,06,26,07,59,17.30
2017,06,26,08,00,17.30
2017,06,26,08,01,17.20
2017,06,26,08,02,17.20
2017,06,26,08,03,17.20
2017,06,26,08,04,17.20
2017,06,26,08,05,17.20
2017,06,26,08,06,17.20
2017,06,26,08,07,17.20
2017,06,26,08,08,17.30
2017,06,26,08,09,17.30
2017,06,26,08,10,17.30
2017,06,26,08,11,17.20
2017,06,26,08,12,17.20
2017,06,26,08,13,17.20
2017,06,26,08,14,17.20
2017,06,26,08,15,17.20
2017,06,26,08,16,17.30
2017,06,26,08,17,17.30
2017,06,26,08,18,17.30
2017,06,26,08,19,17.30
2017,06,26,08,20,17.40
2017,06,26,08,21,17.40
2017,06,26,08,22,17.40
2017,06,26,08,23,17.50
2017,06,26,08,24,17.60
2017,06,26,08,25,17.60
2017,06,26,08,26,17.60
2017,06,26,08,27,17.70
2017,06,26,08,28,17.60
2017,06,26,08,29,17.60
2017,06,26,08,30,17.70
2017,06,26,08,31,17.60
2017,06,26,08,32,17.60
2017,06,26,08,33,17.60
2017,06,26,08,34,17.70
2017,06,26,08,35,17.70
2017,06,26,08,36,17.70
2017,06,26,08,37,17.70
2017,06,26,08,38,17.70
2017,06,26,08,39,17.70
2017,06,26,08,40,17.70
2017,06,26,08,41,17.80
2017,06,26,08,42,17.80
2017,06,26,08,43,17.80
2017,06,26,08,44,17.90
2017,06,26,08,45,18.00
2017,06,26,08,46,18.10
2017,06,26,08,47,18.10
2017,06,26,08,48,18.20
2017,06,26,08,49,18.30
2017,06,26,08,50,18.30
2017,06,26,08,51,18.40
2017,06,26,08,52,18.50
2017,06,26,08,53,18.60
2017,06,26,08,54,18.60
2017,06,26,08,55,18.70
2017,06,26,08,56,18.80
2017,06,26,08,57,19.00
2017,06,26,08,58,19.10
2017,06,26,08,59,19.20
2017,06,26,09,00,19.30
2017,06,26,09,01,19.30
2017,06,26,09,02,19.40
2017,06,26,09,03,19.40
2017,06,26,09,04,19.50
2017,06,26,09,05,19.60
2017,06,26,09,06,19.70
2017,06,26,09,07,19.80
2017,06,26,09,08,19.90
2017,06,26,09,09,20.00
2017,06,26,09,10,20.10
2017,06,26,09,11,20.20
2017,06,26,09,12,20.30
2017,06,26,09,13,20.30
2017,06,26,09,14,20.40
2017,06,26,09,15,20.40
2017,06,26,09,16,20.40
2017,06,26,09,17,20.40
2017,06,26,09,18,20.50
2017,06,26,09,19,20.50
2017,06,26,09,20,20.40
2017,06,26,09,21,20.40
2017,06,26,09,22,20.40
2017,06,26,09,23,20.40
2017,06,26,09,24,20.40
2017,06,26,09,25,20.40
2017,06,26,09,26,20.40
2017,06,26,09,27,20.30
2017,06,26,09,28,20.30
2017,06,26,09,29,20.20
2017,06,26,09,30,20.20
2017,06,26,09,31,20.10
2017,06,26,09,32,20.10
2017,06,26,09,33,20.10
2017,06,26,09,34,20.00
2017,06,26,09,35,19.90
2017,06,26,09,36,19.90
2017,06,26,09,37,19.80
2017,06,26,09,38,19.80
2017,06,26,09,39,19.70
2017,06,26,09,40,19.60
2017,06,26,09,41,19.60
2017,06,26,09,42,19.40
2017,06,26,09,43,19.30
2017,06,26,09,44,19.30
2017,06,26,09,45,19.20
2017,06,26,09,46,19.20
2017,06,26,09,47,19.10
2017,06,26,09,48,19.00
2017,06,26,09,49,18.90
2017,06,26,09,50,18.90
2017,06,26,09,51,18.90
2017,06,26,09,52,18.80
2017,06,26,09,53,18.80
2017,06,26,09,54,18.70
2017,06,26,09,55,18.70
2017,06,26,09,56,18.60
2017,06,26,09,57,18.60
2017,06,26,09,58,18.60
2017,06,26,09,59,18.60
2017,06,26,10,00,18.60
2017,06,26,10,01,18.60
2017,06,26,10,02,18.60
2017,06,26,10,03,18.60
2017,06,26,10,04,18.60
2017,06,26,10,05,18.60
2017,06,26,10,06,18.60
2017,06,26,10,07,18.60
2017,06,26,10,08,18.60
2017,06,26,10,09,18.60
2017,06,26,10,10,18.70
2017,06,26,10,11,18.80
2017,06,26,10,12,18.80
2017,06,26,10,13,18.90
2017,06,26,10,14,19.00
2017,06,26,10,15,19.10
2017,06,26,10,16,19.20
2017,06,26,10,17,19.20
2017,06,26,10,18,19.30
2017,06,26,10,19,19.50
2017,06,26,10,20,19.60
2017,06,26,10,21,19.70
2017,06,26,10,22,19.80
2017,06,26,10,23,19.80
2017,06,26,10,24,19.90
2017,06,26,10,25,20.00
2017,06,26,10,26,20.00
2017,06,26,10,27,20.10
2017,06,26,10,28,20.20
2017,06,26,10,29,20.20
2017,06,26,10,30,20.30
2017,06,26,10,31,20.30
2017,06,26,10,32,20.30
2017,06,26,10,33,20.30
2017,06,26,10,34,20.40
2017,06,26,10,35,20.40
2017,06,26,10,36,20.50
2017,06,26,10,37,20.50
2017,06,26,10,38,20.50
2017,06,26,10,39,20.50
2017,06,26,10,40,20.50
2017,06,26,10,41,20.40
2017,06,26,10,42,20.30
2017,06,26,10,43,20.30
2017,06,26,10,44,20.30
2017,06,26,10,45,20.30
2017,06,26,10,46,20.30
2017,06,26,10,47,20.20
2017,06,26,10,48,20.30
2017,06,26,10,49,20.20
2017,06,26,10,50,20.10
2017,06,26,10,51,20.00
2017,06,26,10,52,19.90
2017,06,26,10,53,19.90
2017,06,26,10,54,20.00
2017,06,26,10,55,20.00
2017,06,26,10,56,20.10
2017,06,26,10,57,20.10
2017,06,26,10,58,20.20
2017,06,26,10,59,20.20
2017,06,26,11,00,20.30
2017,06,26,11,01,20.40
2017,06,26,11,02,20.50
2017,06,26,11,03,20.50
2017,06,26,11,04,20.50
2017,06,26,11,05,20.50
2017,06,26,11,06,20.50
2017,06,26,11,07,20.50
2017,06,26,11,08,20.50
2017,06,26,11,09,20.60
2017,06,26,11,10,20.70
2017,06,26,11,11,20.80
2017,06,26,11,12,20.80
2017,06,26,11,13,20.90
2017,06,26,11,14,21.00
2017,06,26,11,15,21.00
2017,06,26,11,16,21.10
2017,06,26,11,17,21.10
2017,06,26,11,18,21.20
2017,06,26,11,19,21.20
2017,06,26,11,20,21.30
2017,06,26,11,21,21.30
2017,06,26,11,22,21.30
2017,06,26,11,23,21.40
2017,06,26,11,24,21.50
2017,06,26,11,25,21.60
2017,06,26,11,26,21.70
2017,06,26,11,27,21.80
2017,06,26,11,28,21.90
2017,06,26,11,29,21.90
2017,06,26,11,30,22.00
2017,06,26,11,31,22.10
2017,06,26,11,32,22.20
2017,06,26,11,33,22.30
2017,06,26,11,34,22.40
2017,06,26,11,35,22.40
2017,06,26,11,36,22.50
2017,06,26,11,37,22.50
2017,06,26,11,38,22.50
2017,06,26,11,39,22.40
2017,06,26,11,40,22.40
2017,06,26,11,41,22.30
2017,06,26,11,42,22.20
2017,06,26,11,43,22.20
2017,06,26,11,44,22.20
2017,06,26,11,45,22.20
2017,06,26,11,46,22.30
2017,06,26,11,47,22.40
2017,06,26,11,48,22.50
2017,06,26,11,49,22.50
2017,06,26,11,50,22.60
2017,06,26,11,51,22.60
2017,06,26,11,52,22.60
2017,06,26,11,53,22.50
2017,06,26,11,54,22.50
2017,06,26,11,55,22.50
2017,06,26,11,56,22.60
2017,06,26,11,57,22.70
2017,06,26,11,58,22.70
2017,06,26,11,59,22.70
2017,06,26,12,00,22.70
2017,06,26,12,01,22.70
2017,06,26,12,02,22.70
2017,06,26,12,03,22.70
2017,06,26,12,04,22.70
2017,06,26,12,05,22.80
2017,06,26,12,06,22.80
2017,06,26,12,07,22.80
2017,06,26,12,08,22.90
2017,06,26,12,09,22.90
2017,06,26,12,10,23.00
2017,06,26,12,11,23.00
2017,06,26,12,12,23.00
2017,06,26,12,13,23.00
2017,06,26,12,14,22.90
2017,06,26,12,15,22.80
2017,06,26,12,16,22.80
2017,06,26,12,17,22.80
2017,06,26,12,18,22.80
2017,06,26,12,19,22.80
2017,06,26,12,20,22.80
2017,06,26,12,21,22.70
2017,06,26,12,22,22.70
2017,06,26,12,23,22.70
2017,06,26,12,24,22.80
2017,06,26,12,25,22.90
2017,06,26,12,26,23.00
2017,06,26,12,27,23.10
2017,06,26,12,28,23.00
2017,06,26,12,29,22.90
2017,06,26,12,30,22.80
2017,06,26,12,31,22.80
2017,06,26,12,32,22.80
2017,06,26,12,33,22.80
2017,06,26,12,34,22.70
2017,06,26,12,35,22.70
2017,06,26,12,36,22.70
2017,06,26,12,37,22.80
2017,06,26,12,38,22.80
2017,06,26,12,39,22.80
2017,06,26,12,40,22.80
2017,06,26,12,41,22.80
2017,06,26,12,42,22.80
2017,06,26,12,43,22.80
2017,06,26,12,44,22.80
2017,06,26,12,45,22.90
2017,06,26,12,46,22.90
2017,06,26,12,47,22.90
2017,06,26,12,48,23.00
2017,06,26,12,49,23.10
2017,06,26,12,50,23.00
2017,06,26,12,51,23.10
2017,06,26,12,52,23.00
2017,06,26,12,53,23.00
2017,06,26,12,54,23.00
2017,06,26,12,55,23.00
2017,06,26,12,56,22.90
2017,06,26,12,57,22.90
2017,06,26,12,58,22.90
2017,06,26,12,59,23.00
2017,06,26,13,00,23.10
2017,06,26,13,01,23.20
2017,06,26,13,02,23.30
2017,06,26,13,03,23.30
2017,06,26,13,04,23.40
2017,06,26,13,05,23.50
2017,06,26,13,06,23.60
2017,06,26,13,07,23.70
2017,06,26,13,08,23.70
2017,06,26,13,09,23.70
2017,06,26,13,10,23.70
2017,06,26,13,11,23.80
2017,06,26,13,12,23.80
2017,06,26,13,13,23.80
2017,06,26,13,14,23.80
2017,06,26,13,15,23.80
2017,06,26,13,16,23.80
2017,06,26,13,17,23.80
2017,06,26,13,18,23.80
2017,06,26,13,19,23.80
2017,06,26,13,20,23.80
2017,06,26,13,21,23.80
2017,06,26,13,22,23.80
2017,06,26,13,23,23.80
2017,06,26,13,24,23.70
2017,06,26,13,25,23.60
2017,06,26,13,26,23.50
2017,06,26,13,27,23.50
2017,06,26,13,28,23.50
2017,06,26,13,29,23.50
2017,06,26,13,30,23.60
2017,06,26,13,31,23.50
2017,06,26,13,32,23.50
2017,06,26,13,33,23.50
2017,06,26,13,34,23.60
2017,06,26,13,35,23.60
2017,06,26,13,36,23.70
2017,06,26,13,37,23.70
2017,06,26,13,38,23.70
2017,06,26,13,39,23.80
2017,06,26,13,40,23.80
2017,06,26,13,41,23.80
2017,06,26,13,42,23.90
2017,06,26,13,43,23.90
2017,06,26,13,44,24.00
2017,06,26,13,45,24.00
2017,06,26,13,46,24.10
2017,06,26,13,47,24.20
2017,06,26,13,48,24.10
2017,06,26,13,49,24.10
2017,06,26,13,50,24.10
2017,06,26,13,51,24.20
2017,06,26,13,52,24.20
2017,06,26,13,53,24.30
2017,06,26,13,54,24.40
2017,06,26,13,55,24.50
2017,06,26,13,56,24.70
2017,06,26,13,57,24.70
2017,06,26,13,58,24.70
2017,06,26,13,59,24.80
2017,06,26,14,00,24.80
2017,06,26,14,01,24.80
2017,06,26,14,02,24.90
2017,06,26,14,03,24.90
2017,06,26,14,04,24.90
2017,06,26,14,05,24.90
2017,06,26,14,06,24.80
2017,06,26,14,07,24.70
2017,06,26,14,08,24.70
2017,06,26,14,09,24.70
2017,06,26,14,10,24.80
2017,06,26,14,11,24.80
2017,06,26,14,12,24.80
2017,06,26,14,13,24.90
2017,06,26,14,14,24.90
2017,06,26,14,15,25.00
2017,06,26,14,16,25.10
2017,06,26,14,17,25.20
2017,06,26,14,18,25.30
2017,06,26,14,19,25.30
2017,06,26,14,20,25.40
2017,06,26,14,21,25.50
2017,06,26,14,22,25.60
2017,06,26,14,23,25.60
2017,06,26,14,24,25.60
2017,06,26,14,25,25.60
2017,06,26,14,26,25.60
2017,06,26,14,27,25.60
2017,06,26,14,28,25.60
2017,06,26,14,29,25.60
2017,06,26,14,30,25.50
2017,06,26,14,31,25.40
2017,06,26,14,32,25.30
2017,06,26,14,33,25.30
2017,06,26,14,34,25.20
2017,06,26,14,35,25.20
2017,06,26,14,36,25.20
2017,06,26,14,37,25.20
2017,06,26,14,38,25.10
2017,06,26,14,39,25.10
2017,06,26,14,40,25.10
2017,06,26,14,41,25.10
2017,06,26,14,42,25.10
2017,06,26,14,43,25.10
2017,06,26,14,44,25.10
2017,06,26,14,45,25.10
2017,06,26,14,46,25.10
2017,06,26,14,47,25.10
2017,06,26,14,48,25.00
2017,06,26,14,49,24.90
2017,06,26,14,50,24.90
2017,06,26,14,51,24.90
2017,06,26,14,52,24.90
2017,06,26,14,53,24.90
2017,06,26,14,54,24.90
2017,06,26,14,55,24.90
2017,06,26,14,56,24.80
2017,06,26,14,57,24.80
2017,06,26,14,58,24.80
2017,06,26,14,59,24.90
2017,06,26,15,00,25.00
2017,06,26,15,01,25.10
2017,06,26,15,02,25.00
2017,06,26,15,03,24.90
2017,06,26,15,04,24.80
2017,06,26,15,05,24.90
2017,06,26,15,06,24.90
2017,06,26,15,07,24.90
2017,06,26,15,08,25.00
2017,06,26,15,09,25.10
2017,06,26,15,10,25.10
2017,06,26,15,11,25.10
2017,06,26,15,12,25.10
2017,06,26,15,13,25.00
2017,06,26,15,14,24.90
2017,06,26,15,15,24.90
2017,06,26,15,16,24.80
2017,06,26,15,17,24.90
2017,06,26,15,18,24.90
2017,06,26,15,19,25.00
2017,06,26,15,20,25.00
2017,06,26,15,21,25.00
2017,06,26,15,22,25.00
2017,06,26,15,23,25.10
2017,06,26,15,24,25.10
2017,06,26,15,25,25.00
2017,06,26,15,26,24.90
2017,06,26,15,27,24.90
2017,06,26,15,28,24.90
2017,06,26,15,29,24.80
2017,06,26,15,30,24.80
2017,06,26,15,31,24.90
2017,06,26,15,32,24.90
2017,06,26,15,33,24.90
2017,06,26,15,34,24.80
2017,06,26,15,35,24.80
2017,06,26,15,36,24.80
2017,06,26,15,37,24.90
2017,06,26,15,38,24.90
2017,06,26,15,39,25.00
2017,06,26,15,40,25.10
2017,06,26,15,41,25.30
2017,06,26,15,42,25.40
2017,06,26,15,43,25.60
2017,06,26,15,44,25.80
2017,06,26,15,45,25.90
2017,06,26,15,46,26.10
2017,06,26,15,47,26.10
2017,06,26,15,48,25.90
2017,06,26,15,49,25.80
2017,06,26,15,50,25.60
2017,06,26,15,51,25.50
2017,06,26,15,52,25.40
2017,06,26,15,53,25.40
2017,06,26,15,54,25.20
2017,06,26,15,55,25.00
2017,06,26,15,56,25.00
2017,06,26,15,57,25.10
2017,06,26,15,58,25.10
2017,06,26,15,59,25.00
2017,06,26,16,00,24.80
2017,06,26,16,01,24.70
2017,06,26,16,02,24.60
2017,06,26,16,03,24.60
2017,06,26,16,04,24.60
2017,06,26,16,05,24.50
2017,06,26,16,06,24.60
2017,06,26,16,07,24.60
2017,06,26,16,08,24.60
2017,06,26,16,09,24.60
2017,06,26,16,10,24.60
2017,06,26,16,11,24.60
2017,06,26,16,12,24.70
2017,06,26,16,13,24.80
2017,06,26,16,14,24.80
2017,06,26,16,15,24.90
2017,06,26,16,16,25.00
2017,06,26,16,17,25.10
2017,06,26,16,18,25.20
2017,06,26,16,19,25.30
2017,06,26,16,20,25.30
2017,06,26,16,21,25.30
2017,06,26,16,22,25.20
2017,06,26,16,23,25.20
2017,06,26,16,24,25.20
2017,06,26,16,25,25.20
2017,06,26,16,26,25.20
2017,06,26,16,27,25.10
2017,06,26,16,28,25.10
2017,06,26,16,29,25.00
2017,06,26,16,30,24.90
2017,06,26,16,31,24.90
2017,06,26,16,32,25.00
2017,06,26,16,33,25.00
2017,06,26,16,34,25.00
2017,06,26,16,35,25.10
2017,06,26,16,36,25.10
2017,06,26,16,37,25.10
2017,06,26,16,38,25.10
2017,06,26,16,39,25.10
2017,06,26,16,40,25.10
2017,06,26,16,41,25.10
2017,06,26,16,42,25.10
2017,06,26,16,43,25.20
2017,06,26,16,44,25.20
2017,06,26,16,45,25.20
2017,06,26,16,46,25.20
2017,06,26,16,47,25.30
2017,06,26,16,48,25.30
2017,06,26,16,49,25.20
2017,06,26,16,50,25.20
2017,06,26,16,51,25.20
2017,06,26,16,52,25.10
2017,06,26,16,53,25.10
2017,06,26,16,54,25.20
2017,06,26,16,55,25.20
2017,06,26,16,56,25.30
2017,06,26,16,57,25.30
2017,06,26,16,58,25.40
2017,06,26,16,59,25.30
2017,06,26,17,00,25.30
2017,06,26,17,01,25.30
2017,06,26,17,02,25.30
2017,06,26,17,03,25.20
2017,06,26,17,04,25.10
2017,06,26,17,05,24.90
2017,06,26,17,06,24.80
2017,06,26,17,07,24.80
2017,06,26,17,08,24.70
2017,06,26,17,09,24.60
2017,06,26,17,10,24.60
2017,06,26,17,11,24.50
2017,06,26,17,12,24.50
2017,06,26,17,13,24.50
2017,06,26,17,14,24.60
2017,06,26,17,15,24.70
2017,06,26,17,16,24.80
2017,06,26,17,17,25.00
2017,06,26,17,18,25.00
2017,06,26,17,19,25.10